Time,TemperatureF,DewpointF,PressureIn,WindDirection,WindDirectionDegrees,WindSpeedMPH,WindSpeedGustMPH,Humidity,HourlyPrecipIn,Conditions,Clouds,dailyrainin,SoftwareType,DateUTC
2014-01-29 00:01:00,16.2,0.8,30.21,West,277,1.0,4.0,50,0.00,,---,0.00,VWS V14.00,2014-01-29 05:01:00,
2014-01-29 00:02:00,16.2,0.8,30.21,WNW,283,2.0,4.0,50,0.00,,---,0.00,VWS V14.00,2014-01-29 05:02:00,
2014-01-29 00:03:00,16.2,0.8,30.21,WNW,283,2.0,4.0,50,0.00,,---,0.00,VWS V14.00,2014-01-29 05:03:00,
2014-01-29 00:08:00,16.2,0.8,30.21,WNW,285,2.0,3.0,50,0.00,,---,0.00,VWS V14.00,2014-01-29 05:08:00,
2014-01-29 00:13:00,16.2,1.3,30.21,WNW,290,2.0,3.0,51,0.00,,---,0.00,VWS V14.00,2014-01-29 05:13:00,
2014-01-29 00:18:00,16.2,1.3,30.20,NW,307,1.0,3.0,51,0.00,,---,0.00,VWS V14.00,2014-01-29 05:18:00,
2014-01-29 00:23:00,16.3,1.4,30.20,WNW,293,2.0,3.0,51,0.00,,---,0.00,VWS V14.00,2014-01-29 05:23:00,
2014-01-29 00:28:00,16.2,1.3,30.19,WNW,294,2.0,3.0,51,0.00,,---,0.00,VWS V14.00,2014-01-29 05:28:00,
2014-01-29 00:33:00,16.2,1.3,30.19,WNW,294,0.0,3.0,51,0.00,,---,0.00,VWS V14.00,2014-01-29 05:33:00,
2014-01-29 00:38:00,16.2,1.7,30.19,WNW,294,1.0,3.0,52,0.00,,---,0.00,VWS V14.00,2014-01-29 05:38:00,
2014-01-29 00:43:00,16.2,1.7,30.19,WNW,294,0.0,3.0,52,0.00,,---,0.00,VWS V14.00,2014-01-29 05:43:00,
2014-01-29 00:48:00,16.2,1.7,30.20,WNW,294,1.0,3.0,52,0.00,,---,0.00,VWS V14.00,2014-01-29 05:48:00,
2014-01-29 00:53:00,16.2,1.7,30.19,WNW,294,2.0,3.0,52,0.00,,---,0.00,VWS V14.00,2014-01-29 05:53:00,
2014-01-29 00:58:00,16.2,1.3,30.20,WNW,294,1.0,3.0,51,0.00,,---,0.00,VWS V14.00,2014-01-29 05:58:00,
2014-01-29 01:03:00,16.2,1.7,30.19,WNW,294,2.0,3.0,52,0.00,,---,0.00,VWS V14.00,2014-01-29 06:03:00,
2014-01-29 01:08:00,16.2,2.1,30.19,WNW,294,0.0,3.0,53,0.00,,---,0.00,VWS V14.00,2014-01-29 06:08:00,
2014-01-29 01:13:00,16.2,1.7,30.19,WNW,294,0.0,3.0,52,0.00,,---,0.00,VWS V14.00,2014-01-29 06:13:00,
2014-01-29 01:18:00,16.2,1.7,30.19,West,277,1.0,3.0,52,0.00,,---,0.00,VWS V14.00,2014-01-29 06:18:00,
2014-01-29 01:23:00,16.2,1.7,30.19,West,277,0.0,3.0,52,0.00,,---,0.00,VWS V14.00,2014-01-29 06:23:00,
2014-01-29 01:28:00,16.3,1.8,30.19,West,277,2.0,3.0,52,0.00,,---,0.00,VWS V14.00,2014-01-29 06:28:00,
2014-01-29 01:33:00,16.2,1.7,30.20,West,277,0.0,3.0,52,0.00,,---,0.00,VWS V14.00,2014-01-29 06:33:00,
2014-01-29 01:38:00,16.2,1.7,30.19,West,277,0.0,1.0,52,0.00,,---,0.00,VWS V14.00,2014-01-29 06:38:00,
2014-01-29 01:43:00,16.2,1.7,30.19,West,277,0.0,1.0,52,0.00,,---,0.00,VWS V14.00,2014-01-29 06:43:00,
2014-01-29 01:48:00,16.2,1.7,30.19,West,277,0.0,2.0,52,0.00,,---,0.00,VWS V14.00,2014-01-29 06:48:00,
2014-01-29 01:53:00,16.2,1.7,30.18,West,277,0.0,2.0,52,0.00,,---,0.00,VWS V14.00,2014-01-29 06:53:00,
2014-01-29 01:58:00,16.2,1.7,30.19,West,277,0.0,2.0,52,0.00,,---,0.00,VWS V14.00,2014-01-29 06:58:00,
2014-01-29 02:03:00,16.2,1.3,30.19,West,277,0.0,2.0,51,0.00,,---,0.00,VWS V14.00,2014-01-29 07:03:00,
2014-01-29 02:08:00,16.2,1.7,30.19,West,277,0.0,2.0,52,0.00,,---,0.00,VWS V14.00,2014-01-29 07:08:00,
2014-01-29 02:13:00,16.3,1.8,30.18,West,277,0.0,2.0,52,0.00,,---,0.00,VWS V14.00,2014-01-29 07:13:00,
2014-01-29 02:18:00,16.3,1.8,30.18,West,277,0.0,2.0,52,0.00,,---,0.00,VWS V14.00,2014-01-29 07:18:00,
2014-01-29 02:23:00,16.3,2.2,30.17,West,277,1.0,2.0,53,0.00,,---,0.00,VWS V14.00,2014-01-29 07:23:00,
2014-01-29 02:28:00,16.3,1.4,30.17,West,277,0.0,2.0,51,0.00,,---,0.00,VWS V14.00,2014-01-29 07:28:00,
2014-01-29 02:33:00,16.3,2.2,30.17,West,276,1.0,2.0,53,0.00,,---,0.00,VWS V14.00,2014-01-29 07:33:00,
2014-01-29 02:38:00,16.3,2.6,30.17,West,277,0.0,3.0,54,0.00,,---,0.00,VWS V14.00,2014-01-29 07:38:00,
2014-01-29 02:43:00,16.2,2.9,30.17,West,277,0.0,3.0,55,0.00,,---,0.00,VWS V14.00,2014-01-29 07:43:00,
2014-01-29 02:48:00,16.2,2.9,30.17,West,277,0.0,3.0,55,0.00,,---,0.00,VWS V14.00,2014-01-29 07:48:00,
2014-01-29 02:53:00,16.2,3.3,30.17,WSW,257,1.0,5.0,56,0.00,,---,0.00,VWS V14.00,2014-01-29 07:53:00,
2014-01-29 02:58:00,16.1,3.9,30.17,WSW,256,0.0,5.0,58,0.00,,---,0.00,VWS V14.00,2014-01-29 07:58:00,
2014-01-29 03:02:00,16.1,3.9,30.17,WSW,256,1.0,5.0,58,0.00,,---,0.00,VWS V14.00,2014-01-29 08:02:00,
2014-01-29 03:07:00,16.0,4.2,30.17,WSW,256,0.0,1.0,59,0.00,,---,0.00,VWS V14.00,2014-01-29 08:07:00,
2014-01-29 03:12:00,16.0,4.2,30.17,WSW,256,0.0,1.0,59,0.00,,---,0.00,VWS V14.00,2014-01-29 08:12:00,
2014-01-29 03:17:00,15.9,4.5,30.17,WSW,256,2.0,3.0,60,0.00,,---,0.00,VWS V14.00,2014-01-29 08:17:00,
2014-01-29 03:22:00,15.9,5.2,30.16,WNW,293,0.0,4.0,62,0.00,,---,0.00,VWS V14.00,2014-01-29 08:22:00,
2014-01-29 03:27:00,15.8,5.4,30.16,WNW,293,0.0,4.0,63,0.00,,---,0.00,VWS V14.00,2014-01-29 08:27:00,
2014-01-29 03:30:00,15.8,5.4,30.16,WNW,293,0.0,4.0,63,0.00,,---,0.00,VWS V14.00,2014-01-29 08:30:00,
2014-01-29 03:35:00,15.7,5.7,30.16,WNW,293,0.0,0.0,64,0.00,,---,0.00,VWS V14.00,2014-01-29 08:35:00,
2014-01-29 03:40:00,15.7,6.0,30.16,WNW,293,1.0,2.0,65,0.00,,---,0.00,VWS V14.00,2014-01-29 08:40:00,
2014-01-29 03:45:00,15.6,6.6,30.16,WNW,293,1.0,2.0,67,0.00,,---,0.00,VWS V14.00,2014-01-29 08:45:00,
2014-01-29 03:50:00,15.5,6.8,30.15,WSW,252,0.0,2.0,68,0.00,,---,0.00,VWS V14.00,2014-01-29 08:50:00,
2014-01-29 03:55:00,15.5,7.2,30.15,WSW,252,0.0,2.0,69,0.00,,---,0.00,VWS V14.00,2014-01-29 08:55:00,
2014-01-29 04:00:00,15.4,7.4,30.15,WSW,252,1.0,2.0,70,0.00,,---,0.00,VWS V14.00,2014-01-29 09:00:00,
2014-01-29 04:05:00,15.3,7.6,30.14,WSW,252,0.0,0.0,71,0.00,,---,0.00,VWS V14.00,2014-01-29 09:05:00,
2014-01-29 04:10:00,15.2,7.8,30.14,WSW,252,0.0,0.0,72,0.00,,---,0.00,VWS V14.00,2014-01-29 09:10:00,
2014-01-29 04:15:00,15.2,8.1,30.15,WSW,252,0.0,0.0,73,0.00,,---,0.00,VWS V14.00,2014-01-29 09:15:00,
2014-01-29 04:20:00,15.1,8.0,30.15,WSW,252,0.0,0.0,73,0.00,,---,0.00,VWS V14.00,2014-01-29 09:20:00,
2014-01-29 04:25:00,15.0,8.2,30.14,WSW,252,0.0,0.0,74,0.00,,---,0.00,VWS V14.00,2014-01-29 09:25:00,
2014-01-29 04:30:00,14.9,8.1,30.14,WSW,252,1.0,2.0,74,0.00,,---,0.00,VWS V14.00,2014-01-29 09:30:00,
2014-01-29 04:35:00,14.8,8.3,30.14,WSW,252,2.0,2.0,75,0.00,,---,0.00,VWS V14.00,2014-01-29 09:35:00,
2014-01-29 04:40:00,14.6,8.1,30.14,WSW,252,0.0,2.0,75,0.00,,---,0.00,VWS V14.00,2014-01-29 09:40:00,
2014-01-29 04:45:00,14.5,8.3,30.12,WSW,252,0.0,2.0,76,0.00,,---,0.00,VWS V14.00,2014-01-29 09:45:00,
2014-01-29 04:50:00,14.4,8.5,30.13,WSW,252,0.0,2.0,77,0.00,,---,0.00,VWS V14.00,2014-01-29 09:50:00,
2014-01-29 04:55:00,14.3,8.4,30.12,NNW,327,2.0,4.0,77,0.00,,---,0.00,VWS V14.00,2014-01-29 09:55:00,
2014-01-29 05:00:00,14.3,8.4,30.12,NNW,327,0.0,4.0,77,0.00,,---,0.00,VWS V14.00,2014-01-29 10:00:00,
2014-01-29 05:05:00,14.2,8.6,30.12,NNW,327,2.0,2.0,78,0.00,,---,0.00,VWS V14.00,2014-01-29 10:05:00,
2014-01-29 05:10:00,14.1,8.5,30.12,NNW,327,1.0,2.0,78,0.00,,---,0.00,VWS V14.00,2014-01-29 10:10:00,
2014-01-29 05:15:00,14.1,8.8,30.11,NNW,327,0.0,3.0,79,0.00,,---,0.00,VWS V14.00,2014-01-29 10:15:00,
2014-01-29 05:20:00,14.1,8.8,30.10,NW,320,0.0,3.0,79,0.00,,---,0.00,VWS V14.00,2014-01-29 10:20:00,
2014-01-29 05:25:00,14.0,8.7,30.11,NW,325,1.0,3.0,79,0.00,,---,0.00,VWS V14.00,2014-01-29 10:25:00,
2014-01-29 05:30:00,14.0,9.0,30.10,NW,317,2.0,3.0,80,0.00,,---,0.00,VWS V14.00,2014-01-29 10:30:00,
2014-01-29 05:35:00,14.0,9.0,30.10,NW,304,0.0,3.0,80,0.00,,---,0.00,VWS V14.00,2014-01-29 10:35:00,
2014-01-29 05:40:00,13.9,9.2,30.10,NNW,331,1.0,4.0,81,0.00,,---,0.00,VWS V14.00,2014-01-29 10:40:00,
2014-01-29 05:45:00,13.9,9.2,30.09,NW,304,0.0,4.0,81,0.00,,---,0.00,VWS V14.00,2014-01-29 10:45:00,
2014-01-29 05:50:00,13.9,9.4,30.09,NW,304,2.0,4.0,82,0.00,,---,0.00,VWS V14.00,2014-01-29 10:50:00,
2014-01-29 05:55:00,13.8,9.3,30.09,NW,304,0.0,4.0,82,0.00,,---,0.00,VWS V14.00,2014-01-29 10:55:00,
2014-01-29 06:00:00,13.8,9.3,30.10,NW,304,1.0,4.0,82,0.00,,---,0.00,VWS V14.00,2014-01-29 11:00:00,
2014-01-29 06:05:00,13.9,9.4,30.10,NW,311,2.0,4.0,82,0.00,,---,0.00,VWS V14.00,2014-01-29 11:05:00,
2014-01-29 06:10:00,13.8,9.6,30.10,NW,311,1.0,4.0,83,0.00,,---,0.00,VWS V14.00,2014-01-29 11:10:00,
2014-01-29 06:15:00,13.8,9.6,30.09,NW,306,3.0,4.0,83,0.00,,---,0.00,VWS V14.00,2014-01-29 11:15:00,
2014-01-29 06:20:00,13.7,9.5,30.10,WNW,296,0.0,4.0,83,0.00,,---,0.00,VWS V14.00,2014-01-29 11:20:00,
2014-01-29 06:25:00,13.7,9.5,30.09,WNW,296,0.0,4.0,83,0.00,,---,0.00,VWS V14.00,2014-01-29 11:25:00,
2014-01-29 06:30:00,13.8,9.6,30.09,WNW,296,0.0,4.0,83,0.00,,---,0.00,VWS V14.00,2014-01-29 11:30:00,
2014-01-29 06:35:00,13.7,9.5,30.10,WNW,296,0.0,0.0,83,0.00,,---,0.00,VWS V14.00,2014-01-29 11:35:00,
2014-01-29 06:40:00,13.8,9.9,30.10,WNW,296,0.0,0.0,84,0.00,,---,0.00,VWS V14.00,2014-01-29 11:40:00,
2014-01-29 06:45:00,13.7,9.8,30.09,WNW,296,0.0,1.0,84,0.00,,---,0.00,VWS V14.00,2014-01-29 11:45:00,
2014-01-29 06:50:00,13.7,9.8,30.09,WNW,296,0.0,1.0,84,0.00,,---,0.00,VWS V14.00,2014-01-29 11:50:00,
2014-01-29 06:55:00,13.7,9.8,30.09,WNW,296,0.0,2.0,84,0.00,,---,0.00,VWS V14.00,2014-01-29 11:55:00,
2014-01-29 07:00:00,13.7,9.8,30.10,WNW,296,0.0,3.0,84,0.00,,---,0.00,VWS V14.00,2014-01-29 12:00:00,
2014-01-29 07:05:00,13.7,9.8,30.10,WNW,296,2.0,2.0,84,0.00,,---,0.00,VWS V14.00,2014-01-29 12:05:00,
2014-01-29 07:10:00,13.8,9.9,30.10,NW,315,1.0,4.0,84,0.00,,---,0.00,VWS V14.00,2014-01-29 12:10:00,
2014-01-29 07:15:00,13.8,9.9,30.10,NW,315,1.0,4.0,84,0.00,,---,0.00,VWS V14.00,2014-01-29 12:15:00,
2014-01-29 07:20:00,13.8,9.9,30.10,WNW,303,0.0,4.0,84,0.00,,---,0.00,VWS V14.00,2014-01-29 12:20:00,
2014-01-29 07:25:00,13.8,9.9,30.11,WNW,294,2.0,4.0,84,0.00,,---,0.00,VWS V14.00,2014-01-29 12:25:00,
2014-01-29 07:30:00,13.8,9.9,30.10,WNW,300,3.0,4.0,84,0.00,,---,0.00,VWS V14.00,2014-01-29 12:30:00,
2014-01-29 07:35:00,13.8,9.9,30.10,WNW,303,1.0,1.0,84,0.00,,---,0.00,VWS V14.00,2014-01-29 12:35:00,
2014-01-29 07:40:00,13.8,10.1,30.10,NW,315,4.0,4.0,85,0.00,,---,0.00,VWS V14.00,2014-01-29 12:40:00,
2014-01-29 07:45:00,13.8,10.1,30.10,NW,315,1.0,4.0,85,0.00,,---,0.00,VWS V14.00,2014-01-29 12:45:00,
2014-01-29 07:50:00,13.8,10.1,30.10,WNW,292,2.0,5.0,85,0.00,,---,0.00,VWS V14.00,2014-01-29 12:50:00,
2014-01-29 07:54:00,13.8,10.1,30.10,NW,309,1.0,5.0,85,0.00,,---,0.00,VWS V14.00,2014-01-29 12:54:00,
2014-01-29 07:59:00,13.9,10.2,30.10,WNW,297,2.0,5.0,85,0.00,,---,0.00,VWS V14.00,2014-01-29 12:59:00,
2014-01-29 08:04:00,13.9,10.2,30.10,NW,317,3.0,4.0,85,0.00,,---,0.00,VWS V14.00,2014-01-29 13:04:00,
2014-01-29 08:09:00,13.9,10.2,30.10,NW,323,4.0,4.0,85,0.00,,---,0.00,VWS V14.00,2014-01-29 13:09:00,
2014-01-29 08:14:00,14.0,10.3,30.09,North,355,2.0,5.0,85,0.00,,---,0.00,VWS V14.00,2014-01-29 13:14:00,
2014-01-29 08:19:00,14.0,10.3,30.09,NNW,344,1.0,5.0,85,0.00,,---,0.00,VWS V14.00,2014-01-29 13:19:00,
2014-01-29 08:24:00,14.1,10.4,30.09,WNW,286,2.0,5.0,85,0.00,,---,0.00,VWS V14.00,2014-01-29 13:24:00,
2014-01-29 08:29:00,14.1,10.4,30.09,WNW,286,2.0,5.0,85,0.00,,---,0.00,VWS V14.00,2014-01-29 13:29:00,
2014-01-29 08:34:00,14.2,10.5,30.10,WNW,287,1.0,3.0,85,0.00,,---,0.00,VWS V14.00,2014-01-29 13:34:00,
2014-01-29 08:39:00,14.2,10.5,30.10,WNW,287,1.0,3.0,85,0.00,,---,0.00,VWS V14.00,2014-01-29 13:39:00,
2014-01-29 08:44:00,14.3,10.6,30.10,WNW,287,2.0,3.0,85,0.00,,---,0.00,VWS V14.00,2014-01-29 13:44:00,
2014-01-29 08:49:00,14.4,10.7,30.09,WNW,286,0.0,4.0,85,0.00,,---,0.00,VWS V14.00,2014-01-29 13:49:00,
2014-01-29 08:54:00,14.5,10.8,30.09,WNW,292,2.0,4.0,85,0.00,,---,0.00,VWS V14.00,2014-01-29 13:54:00,
2014-01-29 08:59:00,14.5,10.8,30.09,WNW,285,3.0,4.0,85,0.00,,---,0.00,VWS V14.00,2014-01-29 13:59:00,
2014-01-29 09:04:00,14.6,10.9,30.09,NW,304,4.0,4.0,85,0.00,,---,0.00,VWS V14.00,2014-01-29 14:04:00,
2014-01-29 09:09:00,14.8,11.1,30.09,WNW,282,3.0,5.0,85,0.00,,---,0.00,VWS V14.00,2014-01-29 14:09:00,
2014-01-29 09:14:00,15.0,11.3,30.09,WNW,298,4.0,5.0,85,0.00,,---,0.00,VWS V14.00,2014-01-29 14:14:00,
2014-01-29 09:19:00,15.0,11.1,30.09,West,268,6.0,8.0,84,0.00,,---,0.00,VWS V14.00,2014-01-29 14:19:00,
2014-01-29 09:24:00,15.1,11.1,30.09,WNW,295,3.0,8.0,84,0.00,,---,0.00,VWS V14.00,2014-01-29 14:24:00,
2014-01-29 09:29:00,15.2,11.0,30.10,West,263,2.0,8.0,83,0.00,,---,0.00,VWS V14.00,2014-01-29 14:29:00,
2014-01-29 09:34:00,15.2,11.0,30.10,NW,322,3.0,3.0,83,0.00,,---,0.00,VWS V14.00,2014-01-29 14:34:00,
2014-01-29 09:39:00,15.3,10.8,30.10,WNW,297,2.0,7.0,82,0.00,,---,0.00,VWS V14.00,2014-01-29 14:39:00,
2014-01-29 09:44:00,15.3,10.8,30.09,West,277,4.0,9.0,82,0.00,,---,0.00,VWS V14.00,2014-01-29 14:44:00,
2014-01-29 09:49:00,15.3,10.5,30.10,NNW,333,3.0,9.0,81,0.00,,---,0.00,VWS V14.00,2014-01-29 14:49:00,
2014-01-29 09:54:00,15.3,10.5,30.09,NW,319,2.0,9.0,81,0.00,,---,0.00,VWS V14.00,2014-01-29 14:54:00,
2014-01-29 09:59:00,15.4,10.4,30.09,West,275,2.0,9.0,80,0.00,,---,0.00,VWS V14.00,2014-01-29 14:59:00,
2014-01-29 10:04:00,15.5,10.2,30.09,NW,321,5.0,6.0,79,0.00,,---,0.00,VWS V14.00,2014-01-29 15:04:00,
2014-01-29 10:09:00,15.6,10.3,30.08,WNW,294,4.0,7.0,79,0.00,,---,0.00,VWS V14.00,2014-01-29 15:09:00,
2014-01-29 10:14:00,15.6,9.7,30.08,WSW,254,3.0,8.0,77,0.00,,---,0.00,VWS V14.00,2014-01-29 15:14:00,
2014-01-29 10:19:00,15.8,9.9,30.08,WSW,258,3.0,8.0,77,0.00,,---,0.00,VWS V14.00,2014-01-29 15:19:00,
2014-01-29 10:24:00,16.0,9.8,30.08,NW,315,3.0,8.0,76,0.00,,---,0.00,VWS V14.00,2014-01-29 15:24:00,
2014-01-29 10:29:00,16.4,9.9,30.08,WNW,283,4.0,8.0,75,0.00,,---,0.00,VWS V14.00,2014-01-29 15:29:00,
2014-01-29 10:34:00,16.8,10.0,30.07,West,268,4.0,9.0,74,0.00,,---,0.00,VWS V14.00,2014-01-29 15:34:00,
2014-01-29 10:39:00,17.1,9.6,30.07,NW,306,4.0,9.0,72,0.00,,---,0.00,VWS V14.00,2014-01-29 15:39:00,
2014-01-29 10:44:00,17.4,9.6,30.07,NNW,342,5.0,9.0,71,0.00,,---,0.00,VWS V14.00,2014-01-29 15:44:00,
2014-01-29 10:49:00,17.9,9.5,30.07,NNW,332,3.0,9.0,69,0.00,,---,0.00,VWS V14.00,2014-01-29 15:49:00,
2014-01-29 10:54:00,18.4,9.0,30.07,NNW,344,1.0,9.0,66,0.00,,---,0.00,VWS V14.00,2014-01-29 15:54:00,
2014-01-29 10:59:00,18.8,8.6,30.06,WNW,292,7.0,11.0,64,0.00,,---,0.00,VWS V14.00,2014-01-29 15:59:00,
2014-01-29 11:04:00,18.8,8.3,30.06,NW,307,1.0,4.0,63,0.00,,---,0.00,VWS V14.00,2014-01-29 16:04:00,
2014-01-29 11:09:00,18.9,8.1,30.06,North,5,3.0,8.0,62,0.00,,---,0.00,VWS V14.00,2014-01-29 16:09:00,
2014-01-29 11:14:00,19.2,7.6,30.05,WNW,287,3.0,8.0,60,0.00,,---,0.00,VWS V14.00,2014-01-29 16:14:00,
2014-01-29 11:19:00,19.6,7.6,30.05,NW,305,2.0,8.0,59,0.00,,---,0.00,VWS V14.00,2014-01-29 16:19:00,
2014-01-29 11:24:00,19.9,7.5,30.05,WSW,240,3.0,9.0,58,0.00,,---,0.00,VWS V14.00,2014-01-29 16:24:00,
2014-01-29 11:29:00,20.0,7.2,30.04,WSW,250,4.0,11.0,57,0.00,,---,0.00,VWS V14.00,2014-01-29 16:29:00,
2014-01-29 11:34:00,20.2,7.8,30.04,West,280,4.0,6.0,58,0.00,,---,0.00,VWS V14.00,2014-01-29 16:34:00,
2014-01-29 11:39:00,20.7,7.5,30.03,WNW,286,5.0,8.0,56,0.00,,---,0.00,VWS V14.00,2014-01-29 16:39:00,
2014-01-29 11:44:00,20.8,6.8,30.03,WNW,301,6.0,10.0,54,0.00,,---,0.00,VWS V14.00,2014-01-29 16:44:00,
2014-01-29 11:49:00,20.8,6.4,30.03,WSW,242,3.0,10.0,53,0.00,,---,0.00,VWS V14.00,2014-01-29 16:49:00,
2014-01-29 11:54:00,21.1,6.2,30.02,WNW,296,6.0,10.0,52,0.00,,---,0.00,VWS V14.00,2014-01-29 16:54:00,
2014-01-29 11:59:00,21.2,5.9,30.02,NW,311,6.0,10.0,51,0.00,,---,0.00,VWS V14.00,2014-01-29 16:59:00,
2014-01-29 12:04:00,21.4,6.1,30.02,West,275,4.0,5.0,51,0.00,,---,0.00,VWS V14.00,2014-01-29 17:04:00,
2014-01-29 12:09:00,21.6,5.4,30.02,West,259,4.0,7.0,49,0.00,,---,0.00,VWS V14.00,2014-01-29 17:09:00,
2014-01-29 12:14:00,21.9,6.1,30.01,WSW,244,2.0,7.0,50,0.00,,---,0.00,VWS V14.00,2014-01-29 17:14:00,
2014-01-29 12:19:00,22.1,5.4,30.01,WSW,255,2.0,10.0,48,0.00,,---,0.00,VWS V14.00,2014-01-29 17:19:00,
2014-01-29 12:24:00,22.2,5.1,30.01,WSW,250,7.0,11.0,47,0.00,,---,0.00,VWS V14.00,2014-01-29 17:24:00,
2014-01-29 12:29:00,22.5,6.7,30.01,WSW,238,5.0,11.0,50,0.00,,---,0.00,VWS V14.00,2014-01-29 17:29:00,
2014-01-29 12:34:00,22.7,5.5,30.00,West,280,11.0,11.0,47,0.00,,---,0.00,VWS V14.00,2014-01-29 17:34:00,
2014-01-29 12:39:00,22.6,5.4,30.00,West,270,6.0,11.0,47,0.00,,---,0.00,VWS V14.00,2014-01-29 17:39:00,
2014-01-29 12:44:00,22.8,6.1,30.00,West,281,4.0,11.0,48,0.00,,---,0.00,VWS V14.00,2014-01-29 17:44:00,
2014-01-29 12:49:00,23.0,6.7,30.00,West,259,1.0,11.0,49,0.00,,---,0.00,VWS V14.00,2014-01-29 17:49:00,
2014-01-29 12:54:00,23.3,6.1,30.00,West,268,3.0,11.0,47,0.00,,---,0.00,VWS V14.00,2014-01-29 17:54:00,
2014-01-29 12:59:00,23.3,6.1,30.00,WSW,243,3.0,12.0,47,0.00,,---,0.00,VWS V14.00,2014-01-29 17:59:00,
2014-01-29 13:04:00,23.4,6.2,30.00,NW,324,8.0,11.0,47,0.00,,---,0.00,VWS V14.00,2014-01-29 18:04:00,
2014-01-29 13:09:00,23.6,6.8,30.00,WNW,292,4.0,12.0,48,0.00,,---,0.00,VWS V14.00,2014-01-29 18:09:00,
2014-01-29 13:14:00,23.8,5.6,29.99,NW,309,6.0,12.0,45,0.00,,---,0.00,VWS V14.00,2014-01-29 18:14:00,
2014-01-29 13:19:00,23.9,5.2,29.99,West,277,3.0,12.0,44,0.00,,---,0.00,VWS V14.00,2014-01-29 18:19:00,
2014-01-29 13:24:00,24.1,4.8,29.99,WSW,247,3.0,12.0,43,0.00,,---,0.00,VWS V14.00,2014-01-29 18:24:00,
2014-01-29 13:29:00,24.4,4.1,29.99,WSW,252,9.0,12.0,41,0.00,,---,0.00,VWS V14.00,2014-01-29 18:29:00,
2014-01-29 13:34:00,24.5,3.7,29.99,WNW,292,8.0,8.0,40,0.00,,---,0.00,VWS V14.00,2014-01-29 18:34:00,
2014-01-29 13:39:00,24.6,4.3,29.98,WSW,248,7.0,8.0,41,0.00,,---,0.00,VWS V14.00,2014-01-29 18:39:00,
2014-01-29 13:44:00,24.8,4.4,29.98,West,270,5.0,9.0,41,0.00,,---,0.00,VWS V14.00,2014-01-29 18:44:00,
2014-01-29 13:49:00,24.9,5.1,29.98,West,265,4.0,11.0,42,0.00,,---,0.00,VWS V14.00,2014-01-29 18:49:00,
2014-01-29 13:54:00,25.0,5.2,29.98,West,278,6.0,11.0,42,0.00,,---,0.00,VWS V14.00,2014-01-29 18:54:00,
2014-01-29 13:59:00,25.0,3.5,29.98,West,267,2.0,11.0,39,0.00,,---,0.00,VWS V14.00,2014-01-29 18:59:00,
2014-01-29 14:04:00,25.1,3.6,29.98,WNW,301,4.0,9.0,39,0.00,,---,0.00,VWS V14.00,2014-01-29 19:04:00,
2014-01-29 14:09:00,25.1,3.1,29.98,WSW,252,3.0,10.0,38,0.00,,---,0.00,VWS V14.00,2014-01-29 19:09:00,
2014-01-29 14:14:00,25.2,3.2,29.98,WSW,257,6.0,10.0,38,0.00,,---,0.00,VWS V14.00,2014-01-29 19:14:00,
2014-01-29 14:19:00,25.2,3.2,29.97,West,260,5.0,12.0,38,0.00,,---,0.00,VWS V14.00,2014-01-29 19:19:00,
2014-01-29 14:24:00,25.2,3.2,29.97,West,273,6.0,12.0,38,0.00,,---,0.00,VWS V14.00,2014-01-29 19:24:00,
2014-01-29 14:29:00,25.1,3.1,29.97,NW,305,5.0,12.0,38,0.00,,---,0.00,VWS V14.00,2014-01-29 19:29:00,
2014-01-29 14:34:00,25.2,3.2,29.97,West,268,1.0,3.0,38,0.00,,---,0.00,VWS V14.00,2014-01-29 19:34:00,
2014-01-29 14:39:00,25.3,2.1,29.98,WNW,293,3.0,9.0,36,0.00,,---,0.00,VWS V14.00,2014-01-29 19:39:00,
2014-01-29 14:44:00,25.4,2.8,29.98,WNW,291,7.0,9.0,37,0.00,,---,0.00,VWS V14.00,2014-01-29 19:44:00,
2014-01-29 14:49:00,25.6,2.4,29.98,West,279,3.0,9.0,36,0.00,,---,0.00,VWS V14.00,2014-01-29 19:49:00,
2014-01-29 14:54:00,25.8,2.5,29.98,West,275,6.0,12.0,36,0.00,,---,0.00,VWS V14.00,2014-01-29 19:54:00,
2014-01-29 14:59:00,25.9,2.0,29.98,West,275,4.0,12.0,35,0.00,,---,0.00,VWS V14.00,2014-01-29 19:59:00,
2014-01-29 15:04:00,26.0,2.7,29.98,West,274,1.0,5.0,36,0.00,,---,0.00,VWS V14.00,2014-01-29 20:04:00,
2014-01-29 15:09:00,26.1,2.2,29.98,West,280,9.0,14.0,35,0.00,,---,0.00,VWS V14.00,2014-01-29 20:09:00,
2014-01-29 15:14:00,26.0,1.5,29.98,NNW,327,3.0,15.0,34,0.00,,---,0.00,VWS V14.00,2014-01-29 20:14:00,
2014-01-29 15:19:00,25.8,1.9,29.98,SW,226,5.0,15.0,35,0.00,,---,0.00,VWS V14.00,2014-01-29 20:19:00,
2014-01-29 15:24:00,25.8,1.3,29.98,West,279,4.0,15.0,34,0.00,,---,0.00,VWS V14.00,2014-01-29 20:24:00,
2014-01-29 15:29:00,25.8,1.9,29.98,WSW,249,4.0,15.0,35,0.00,,---,0.00,VWS V14.00,2014-01-29 20:29:00,
2014-01-29 15:34:00,25.7,1.2,29.98,West,267,2.0,7.0,34,0.00,,---,0.00,VWS V14.00,2014-01-29 20:34:00,
2014-01-29 15:39:00,25.6,1.8,29.98,WSW,246,3.0,11.0,35,0.00,,---,0.00,VWS V14.00,2014-01-29 20:39:00,
2014-01-29 15:44:00,25.5,1.7,29.98,WSW,249,4.0,11.0,35,0.00,,---,0.00,VWS V14.00,2014-01-29 20:44:00,
2014-01-29 15:49:00,25.3,1.5,29.99,West,273,7.0,11.0,35,0.00,,---,0.00,VWS V14.00,2014-01-29 20:49:00,
2014-01-29 15:54:00,25.1,1.3,29.99,WNW,287,4.0,11.0,35,0.00,,---,0.00,VWS V14.00,2014-01-29 20:54:00,
2014-01-29 15:59:00,24.9,1.7,29.99,WNW,290,8.0,11.0,36,0.00,,---,0.00,VWS V14.00,2014-01-29 20:59:00,
2014-01-29 16:04:00,24.7,1.0,29.98,West,270,2.0,5.0,35,0.00,,---,0.00,VWS V14.00,2014-01-29 21:04:00,
2014-01-29 16:09:00,24.5,1.4,29.99,WSW,248,2.0,9.0,36,0.00,,---,0.00,VWS V14.00,2014-01-29 21:09:00,
2014-01-29 16:14:00,24.3,1.8,29.98,WSW,250,5.0,9.0,37,0.00,,---,0.00,VWS V14.00,2014-01-29 21:14:00,
2014-01-29 16:19:00,24.2,1.7,29.99,West,279,3.0,9.0,37,0.00,,---,0.00,VWS V14.00,2014-01-29 21:19:00,
2014-01-29 16:24:00,24.0,2.1,29.99,West,269,3.0,9.0,38,0.00,,---,0.00,VWS V14.00,2014-01-29 21:24:00,
2014-01-29 16:29:00,23.8,1.9,29.99,WSW,252,7.0,9.0,38,0.00,,---,0.00,VWS V14.00,2014-01-29 21:29:00,
2014-01-29 16:34:00,23.7,1.8,30.00,WSW,245,2.0,4.0,38,0.00,,---,0.00,VWS V14.00,2014-01-29 21:34:00,
2014-01-29 16:39:00,23.5,1.6,29.99,WSW,246,2.0,9.0,38,0.00,,---,0.00,VWS V14.00,2014-01-29 21:39:00,
2014-01-29 16:44:00,23.4,1.5,30.00,SW,232,5.0,9.0,38,0.00,,---,0.00,VWS V14.00,2014-01-29 21:44:00,
2014-01-29 16:49:00,23.3,1.5,30.00,West,277,7.0,9.0,38,0.00,,---,0.00,VWS V14.00,2014-01-29 21:49:00,
2014-01-29 16:54:00,23.1,1.8,30.00,WSW,256,2.0,9.0,39,0.00,,---,0.00,VWS V14.00,2014-01-29 21:54:00,
2014-01-29 16:59:00,22.9,1.7,30.00,West,260,5.0,9.0,39,0.00,,---,0.00,VWS V14.00,2014-01-29 21:59:00,
2014-01-29 17:04:00,22.7,2.0,30.01,WSW,253,2.0,8.0,40,0.00,,---,0.00,VWS V14.00,2014-01-29 22:04:00,
2014-01-29 17:09:00,22.6,2.5,30.01,WSW,240,3.0,8.0,41,0.00,,---,0.00,VWS V14.00,2014-01-29 22:09:00,
2014-01-29 17:14:00,22.4,2.8,30.01,West,263,1.0,8.0,42,0.00,,---,0.00,VWS V14.00,2014-01-29 22:14:00,
2014-01-29 17:19:00,22.2,2.6,30.02,WSW,255,1.0,8.0,42,0.00,,---,0.00,VWS V14.00,2014-01-29 22:19:00,
2014-01-29 17:24:00,22.0,2.4,30.02,West,274,5.0,8.0,42,0.00,,---,0.00,VWS V14.00,2014-01-29 22:24:00,
2014-01-29 17:29:00,21.8,2.8,30.02,WSW,240,1.0,8.0,43,0.00,,---,0.00,VWS V14.00,2014-01-29 22:29:00,
2014-01-29 17:34:00,21.7,3.2,30.02,West,265,0.0,2.0,44,0.00,,---,0.00,VWS V14.00,2014-01-29 22:34:00,
2014-01-29 17:39:00,21.6,3.1,30.03,WSW,242,3.0,9.0,44,0.00,,---,0.00,VWS V14.00,2014-01-29 22:39:00,
2014-01-29 17:44:00,21.5,3.0,30.03,West,266,3.0,9.0,44,0.00,,---,0.00,VWS V14.00,2014-01-29 22:44:00,
2014-01-29 17:49:00,21.3,3.3,30.04,WSW,251,2.0,9.0,45,0.00,,---,0.00,VWS V14.00,2014-01-29 22:49:00,
2014-01-29 17:54:00,21.2,3.2,30.04,West,266,1.0,9.0,45,0.00,,---,0.00,VWS V14.00,2014-01-29 22:54:00,
2014-01-29 17:59:00,21.0,3.5,30.04,SW,234,2.0,10.0,46,0.00,,---,0.00,VWS V14.00,2014-01-29 22:59:00,
2014-01-29 18:04:00,20.9,3.4,30.05,SW,234,2.0,6.0,46,0.00,,---,0.00,VWS V14.00,2014-01-29 23:04:00,
2014-01-29 18:09:00,20.9,3.4,30.05,West,263,3.0,6.0,46,0.00,,---,0.00,VWS V14.00,2014-01-29 23:09:00,
2014-01-29 18:14:00,20.8,3.3,30.04,West,274,4.0,6.0,46,0.00,,---,0.00,VWS V14.00,2014-01-29 23:14:00,
2014-01-29 18:19:00,20.7,3.2,30.05,West,264,0.0,7.0,46,0.00,,---,0.00,VWS V14.00,2014-01-29 23:19:00,
2014-01-29 18:24:00,20.7,3.2,30.05,WSW,244,3.0,7.0,46,0.00,,---,0.00,VWS V14.00,2014-01-29 23:24:00,
2014-01-29 18:29:00,20.6,3.1,30.06,WSW,254,2.0,7.0,46,0.00,,---,0.00,VWS V14.00,2014-01-29 23:29:00,
2014-01-29 18:34:00,20.6,3.1,30.06,WSW,244,3.0,6.0,46,0.00,,---,0.00,VWS V14.00,2014-01-29 23:34:00,
2014-01-29 18:39:00,20.6,3.1,30.07,SW,234,6.0,8.0,46,0.00,,---,0.00,VWS V14.00,2014-01-29 23:39:00,
2014-01-29 18:44:00,20.5,2.5,30.07,SW,221,3.0,8.0,45,0.00,,---,0.00,VWS V14.00,2014-01-29 23:44:00,
2014-01-29 18:49:00,20.4,2.5,30.07,SW,229,0.0,8.0,45,0.00,,---,0.00,VWS V14.00,2014-01-29 23:49:00,
2014-01-29 18:54:00,20.3,2.8,30.07,WSW,239,1.0,8.0,46,0.00,,---,0.00,VWS V14.00,2014-01-29 23:54:00,
2014-01-29 18:59:00,20.2,2.7,30.08,WNW,295,0.0,8.0,46,0.00,,---,0.00,VWS V14.00,2014-01-29 23:59:00,
2014-01-29 19:04:00,20.0,2.6,30.08,WNW,294,2.0,2.0,46,0.00,,---,0.00,VWS V14.00,2014-01-30 00:04:00,
2014-01-29 19:09:00,19.8,2.4,30.08,WSW,240,2.0,3.0,46,0.00,,---,0.00,VWS V14.00,2014-01-30 00:09:00,
2014-01-29 19:14:00,19.7,2.3,30.09,West,265,3.0,4.0,46,0.00,,---,0.00,VWS V14.00,2014-01-30 00:14:00,
2014-01-29 19:19:00,19.5,2.1,30.09,West,263,1.0,4.0,46,0.00,,---,0.00,VWS V14.00,2014-01-30 00:19:00,
2014-01-29 19:24:00,19.3,1.9,30.10,WSW,246,2.0,5.0,46,0.00,,---,0.00,VWS V14.00,2014-01-30 00:24:00,
2014-01-29 19:29:00,19.2,1.8,30.10,WSW,246,0.0,5.0,46,0.00,,---,0.00,VWS V14.00,2014-01-30 00:29:00,
2014-01-29 19:34:00,19.1,2.2,30.10,SW,217,4.0,4.0,47,0.00,,---,0.00,VWS V14.00,2014-01-30 00:34:00,
2014-01-29 19:39:00,19.0,2.1,30.10,WSW,237,1.0,4.0,47,0.00,,---,0.00,VWS V14.00,2014-01-30 00:39:00,
2014-01-29 19:43:00,18.9,2.0,30.11,WSW,238,1.0,4.0,47,0.00,,---,0.00,VWS V14.00,2014-01-30 00:43:00,
2014-01-29 19:48:00,18.8,1.9,30.11,West,261,1.0,4.0,47,0.00,,---,0.00,VWS V14.00,2014-01-30 00:48:00,
2014-01-29 19:53:00,18.6,2.2,30.11,West,265,2.0,4.0,48,0.00,,---,0.00,VWS V14.00,2014-01-30 00:53:00,
2014-01-29 19:58:00,18.4,2.0,30.11,WNW,288,1.0,5.0,48,0.00,,---,0.00,VWS V14.00,2014-01-30 00:58:00,
2014-01-29 20:03:00,18.3,1.9,30.11,West,281,0.0,1.0,48,0.00,,---,0.00,VWS V14.00,2014-01-30 01:03:00,
2014-01-29 20:08:00,18.1,2.2,30.11,West,270,0.0,4.0,49,0.00,,---,0.00,VWS V14.00,2014-01-30 01:08:00,
2014-01-29 20:13:00,18.0,2.1,30.12,WSW,257,1.0,4.0,49,0.00,,---,0.00,VWS V14.00,2014-01-30 01:13:00,
2014-01-29 20:18:00,17.9,2.4,30.12,WNW,286,2.0,4.0,50,0.00,,---,0.00,VWS V14.00,2014-01-30 01:18:00,
2014-01-29 20:23:00,17.8,1.9,30.12,NW,306,4.0,7.0,49,0.00,,---,0.00,VWS V14.00,2014-01-30 01:23:00,
2014-01-29 20:28:00,17.7,2.2,30.12,West,264,3.0,7.0,50,0.00,,---,0.00,VWS V14.00,2014-01-30 01:28:00,
2014-01-29 20:33:00,17.7,2.2,30.12,West,260,1.0,1.0,50,0.00,,---,0.00,VWS V14.00,2014-01-30 01:33:00,
2014-01-29 20:38:00,17.7,2.2,30.13,West,274,2.0,3.0,50,0.00,,---,0.00,VWS V14.00,2014-01-30 01:38:00,
2014-01-29 20:43:00,17.6,2.1,30.13,West,277,0.0,3.0,50,0.00,,---,0.00,VWS V14.00,2014-01-30 01:43:00,
2014-01-29 20:48:00,17.5,2.0,30.13,West,277,0.0,3.0,50,0.00,,---,0.00,VWS V14.00,2014-01-30 01:48:00,
2014-01-29 20:53:00,17.3,1.9,30.14,West,277,0.0,3.0,50,0.00,,---,0.00,VWS V14.00,2014-01-30 01:53:00,
2014-01-29 20:58:00,17.2,1.8,30.14,West,277,0.0,3.0,50,0.00,,---,0.00,VWS V14.00,2014-01-30 01:58:00,
2014-01-29 21:03:00,17.0,1.6,30.14,West,277,1.0,1.0,50,0.00,,---,0.00,VWS V14.00,2014-01-30 02:03:00,
2014-01-29 21:08:00,16.8,1.4,30.14,West,280,1.0,6.0,50,0.00,,---,0.00,VWS V14.00,2014-01-30 02:08:00,
2014-01-29 21:13:00,16.7,1.7,30.14,WNW,297,3.0,6.0,51,0.00,,---,0.00,VWS V14.00,2014-01-30 02:13:00,
2014-01-29 21:18:00,16.6,2.0,30.15,West,279,3.0,6.0,52,0.00,,---,0.00,VWS V14.00,2014-01-30 02:18:00,
2014-01-29 21:23:00,16.6,2.0,30.15,WSW,247,0.0,6.0,52,0.00,,---,0.00,VWS V14.00,2014-01-30 02:23:00,
2014-01-29 21:28:00,16.6,2.0,30.16,West,268,0.0,6.0,52,0.00,,---,0.00,VWS V14.00,2014-01-30 02:28:00,
2014-01-29 21:33:00,16.6,2.0,30.16,WNW,285,0.0,1.0,52,0.00,,---,0.00,VWS V14.00,2014-01-30 02:33:00,
2014-01-29 21:38:00,16.5,2.0,30.16,NW,304,3.0,4.0,52,0.00,,---,0.00,VWS V14.00,2014-01-30 02:38:00,
2014-01-29 21:43:00,16.4,1.5,30.17,WNW,292,3.0,6.0,51,0.00,,---,0.00,VWS V14.00,2014-01-30 02:43:00,
2014-01-29 21:48:00,16.5,1.5,30.17,WNW,286,3.0,6.0,51,0.00,,---,0.00,VWS V14.00,2014-01-30 02:48:00,
2014-01-29 21:53:00,16.6,1.6,30.17,WNW,295,1.0,6.0,51,0.00,,---,0.00,VWS V14.00,2014-01-30 02:53:00,
2014-01-29 21:58:00,16.6,1.6,30.18,West,281,2.0,6.0,51,0.00,,---,0.00,VWS V14.00,2014-01-30 02:58:00,
2014-01-29 22:03:00,16.6,1.6,30.18,West,271,0.0,1.0,51,0.00,,---,0.00,VWS V14.00,2014-01-30 03:03:00,
2014-01-29 22:08:00,16.6,1.6,30.18,WNW,288,1.0,4.0,51,0.00,,---,0.00,VWS V14.00,2014-01-30 03:08:00,
2014-01-29 22:13:00,16.5,1.5,30.18,West,279,1.0,4.0,51,0.00,,---,0.00,VWS V14.00,2014-01-30 03:13:00,
2014-01-29 22:18:00,16.4,1.0,30.19,West,273,2.0,5.0,50,0.00,,---,0.00,VWS V14.00,2014-01-30 03:18:00,
2014-01-29 22:23:00,16.4,1.0,30.19,West,265,0.0,5.0,50,0.00,,---,0.00,VWS V14.00,2014-01-30 03:23:00,
2014-01-29 22:28:00,16.3,0.9,30.19,West,266,0.0,5.0,50,0.00,,---,0.00,VWS V14.00,2014-01-30 03:28:00,
2014-01-29 22:33:00,16.3,0.5,30.19,WNW,297,3.0,4.0,49,0.00,,---,0.00,VWS V14.00,2014-01-30 03:33:00,
2014-01-29 22:38:00,16.4,0.6,30.19,WNW,283,4.0,7.0,49,0.00,,---,0.00,VWS V14.00,2014-01-30 03:38:00,
2014-01-29 22:43:00,16.6,0.8,30.19,NW,319,6.0,8.0,49,0.00,,---,0.00,VWS V14.00,2014-01-30 03:43:00,
2014-01-29 22:48:00,16.8,0.5,30.18,West,267,8.0,10.0,48,0.00,,---,0.00,VWS V14.00,2014-01-30 03:48:00,
2014-01-29 22:53:00,17.0,0.7,30.19,WSW,250,6.0,11.0,48,0.00,,---,0.00,VWS V14.00,2014-01-30 03:53:00,
2014-01-29 22:58:00,17.2,0.4,30.19,WNW,290,5.0,12.0,47,0.00,,---,0.00,VWS V14.00,2014-01-30 03:58:00,
2014-01-29 23:03:00,17.3,0.5,30.20,West,263,4.0,6.0,47,0.00,,---,0.00,VWS V14.00,2014-01-30 04:03:00,
2014-01-29 23:08:00,17.4,0.6,30.19,West,280,3.0,9.0,47,0.00,,---,0.00,VWS V14.00,2014-01-30 04:08:00,
2014-01-29 23:13:00,17.4,0.6,30.19,WNW,285,4.0,10.0,47,0.00,,---,0.00,VWS V14.00,2014-01-30 04:13:00,
2014-01-29 23:18:00,17.4,0.6,30.19,West,278,3.0,11.0,47,0.00,,---,0.00,VWS V14.00,2014-01-30 04:18:00,
2014-01-29 23:23:00,17.4,0.6,30.20,WNW,283,3.0,11.0,47,0.00,,---,0.00,VWS V14.00,2014-01-30 04:23:00,
2014-01-29 23:28:00,17.4,0.6,30.20,West,279,4.0,11.0,47,0.00,,---,0.00,VWS V14.00,2014-01-30 04:28:00,
2014-01-29 23:33:00,17.3,1.0,30.19,WNW,284,5.0,6.0,48,0.00,,---,0.00,VWS V14.00,2014-01-30 04:33:00,
2014-01-29 23:38:00,17.2,0.4,30.20,WNW,292,6.0,9.0,47,0.00,,---,0.00,VWS V14.00,2014-01-30 04:38:00,
2014-01-29 23:43:00,17.2,0.4,30.20,WNW,288,3.0,9.0,47,0.00,,---,0.00,VWS V14.00,2014-01-30 04:43:00,
2014-01-29 23:48:00,17.1,0.3,30.21,West,260,2.0,9.0,47,0.00,,---,0.00,VWS V14.00,2014-01-30 04:48:00,
2014-01-29 23:53:00,17.2,0.4,30.21,West,271,2.0,11.0,47,0.00,,---,0.00,VWS V14.00,2014-01-30 04:53:00,
2014-01-29 23:58:00,17.2,0.4,30.21,West,271,1.0,11.0,47,0.00,,---,0.00,VWS V14.00,2014-01-30 04:58:00,